Tracking 31027 objects as of 19-Jul-2025
HD Live streaming from Space Station
objects crossing your sky now

TANSEI 3 DEB

Track TANSEI 3 DEB now!
10-day predictions


NORAD ID: 9982
Int'l Code: 1977-012F
Perigee: 785.5 km
Apogee: 3,753.3 km
Inclination: 65.9 °
Period: 133.2 minutes
Semi major axis: 8640 km
RCS: 0.0721 m2 (small)
Launch date: February 19, 1977
Source: Japan (JPN)
Launch site: KAGOSHIMA SPACE CENTER UNIVERSITY OF TOKYO (KSCUT)

Note: This is SATELLITE DEBRIS
Your satellite tracking list
EUTE 33A (EB 3)
Track 1 satellite(s)




NASA's NSSDC Master Catalog

Two Line Element Set (TLE):
1  9982U 77012F   25196.54530055  .00000013  00000-0  12672-3 0  9990
2  9982  65.8907 207.9363 1717366 358.5417   1.0837 10.80938670910123
Source of the keplerian elements: AFSPC